User: anonymous   Login
Location: Unspecified
(0.0000°N, 0.0000°E)
Time: 20:25:20
(UTC+00:00)
Language:

NNS O-29 - Orbit

View from above orbital plane
View from above orbital plane
View from above satellite
View from above satellite

Ground track
Ground track

The orbit data is extracted from the following two-line orbital elements,

1 18362U 87080B   17207.22871889 +.00000008 +00000-0 +31266-6 0  9997
2 18362 090.3339 337.0213 0106345 006.6119 034.3083 13.44028011463828
Epoch (UTC): 26 July 2017 05:29:21
Eccentricity: 0.0106345
inclination: 90.3339°
perigee height: 1015 km
apogee height: 1174 km
right ascension of ascending node: 337.0213°
argument of perigee: 6.6119°
revolutions per day: 13.44028011
mean anomaly at epoch: 34.3083°
orbit number at epoch: 46382

The dashed part of the orbit path shows where the satellite is in the earth's shadow,  

DLR